Leuchars, United Kingdom

10:45 PM BST on July 25, 2017 (GMT +0100)
Leuchars Air Base

Weather History for EGQL - April, 2014

Change the Weather History Date:

Friday, April 4, 2014

  Actual Average Record
Temperature  
Mean Temperature 44 °F -  
Max Temperature 46 °F 51 °F 62 °F (2003)
Min Temperature 42 °F 38 °F 28 °F (2012)
Degree Days  
Heating Degree Days 21    
Moisture  
Dew Point 43 °F    
Average Humidity 96    
Maximum Humidity 100    
Minimum Humidity 89    
Precipitation  
Precipitation 0.12 in - - ()
Sea Level Pressure  
Sea Level Pressure 29.72 in    
Wind  
Wind Speed 6 mph ()    
Max Wind Speed 10 mph    
Max Gust Speed -    
Visibility 1.8 miles    
Events Fog , Rain    
Averages and records for this station are not official NWS values.
T = Trace of Precipitation, MM = Missing Value Source: Averaged Metar Reports

Daily Weather History Graph

Daily Weather History Graph

Search for Another Location

Airport or City:

Trip Planner

Search our weather history database for the weather conditions in past years. The results will help you decide how hot, cold, wet, or windy it might be!

Date:

Astronomy

Apr. 04, 2014 Rise Set
Actual Time 6:34 AM BST 7:56 PM BST
Civil Twilight 5:55 AM BST 8:35 PM BST
Nautical Twilight 5:07 AM BST 9:23 PM BST
Astronomical Twilight 4:13 AM BST 10:17 PM BST
Moon 8:58 AM BST (4/4) 12:40 AM BST (4/4)
Length of Visible Light 14h 39m
Length of Day
13h 22m
Waxing Crescent, 23% of the Moon is Illuminated
Apr 4
Waxing Crescent
Apr 7
First Quarter
Apr 15
Full
Apr 22
Last Quarter
Apr 29
New

Hourly Weather History & Observations

Time (BST) Temp. Windchill Dew Point Humidity Pressure Visibility Wind Dir Wind Speed Gust Speed Precip Events Conditions
12:00 AM 44 °F - 42 °F 92% 29.75 in 2 mi East 10.4 mph - -   Mist
12:50 AM 44.6 °F 39.2 °F 42.8 °F 93% 29.74 in 1.9 mi East 10.4 mph - N/A   Overcast
1:00 AM 44 °F - 42 °F 91% 29.75 in 2 mi East 10.4 mph - -   Mist
1:50 AM 44.6 °F 39.7 °F 42.8 °F 93% 29.74 in 2.5 mi East 9.2 mph - N/A   Overcast
2:00 AM 44 °F - 42 °F 89% 29.75 in 2 mi East 9.2 mph - -   Mist
2:50 AM 42.8 °F 37.5 °F 41.0 °F 93% 29.74 in 3.7 mi East 9.2 mph - N/A   Overcast
3:00 AM 43 °F - 41 °F 91% 29.75 in 4 mi East 9.2 mph - -   Mist
4:50 AM 42.8 °F 39.3 °F 42.8 °F 100% 29.71 in 1.6 mi ENE 5.8 mph - N/A Rain Light Rain
5:00 AM 43 °F - 42 °F 94% 29.73 in 2 mi ENE 5.8 mph - - Rain Light Rain
5:50 AM 42.8 °F 38.6 °F 42.8 °F 100% 29.71 in 1.1 mi ENE 6.9 mph - N/A Rain Light Rain
6:00 AM 43 °F - 42 °F 96% 29.73 in 1 mi ENE 6.9 mph - - Rain Light Rain
6:50 AM 42.8 °F 38.0 °F 42.8 °F 100% 29.71 in 1.6 mi East 8.1 mph - N/A Rain Light Rain
7:00 AM 43 °F - 42 °F 97% 29.73 in 2 mi East 8.1 mph - - Rain Light Rain
7:50 AM 42.8 °F 38.6 °F 42.8 °F 100% 29.71 in 2.2 mi ENE 6.9 mph - N/A Rain Light Rain
8:00 AM 43 °F - 42 °F 96% 29.74 in 2 mi ENE 6.9 mph - - Rain Light Rain
8:24 AM 42.8 °F 38.6 °F 42.8 °F 100% 29.71 in 1.2 mi NE 6.9 mph - N/A Rain Light Rain
8:50 AM 42.8 °F 38.0 °F 42.8 °F 100% 29.71 in 1.5 mi NE 8.1 mph - N/A Rain Light Rain
9:00 AM 43 °F - 42 °F 97% 29.73 in 1 mi NE 8.1 mph - - Rain Light Rain
9:16 AM 42.8 °F 38.6 °F 42.8 °F 100% 29.71 in 1.6 mi NE 6.9 mph - N/A Rain Light Rain
9:50 AM 44.6 °F 40.2 °F 42.8 °F 93% 29.71 in 1.6 mi NE 8.1 mph - N/A Rain Light Rain
10:00 AM 44 °F - 43 °F 94% 29.73 in 2 mi NE 8.1 mph - - Rain Light Rain
10:31 AM 44.6 °F 40.7 °F 42.8 °F 93% 29.71 in 0.9 mi NE 6.9 mph - N/A Rain Light Rain
10:50 AM 44.6 °F 40.7 °F 42.8 °F 93% 29.71 in 0.7 mi NE 6.9 mph - N/A Rain Light Rain
11:00 AM 44 °F - 43 °F 97% 29.73 in 1 mi NE 6.9 mph - - Rain Light Rain
11:36 AM 44.6 °F 40.2 °F 44.6 °F 100% 29.71 in 1.1 mi NE 8.1 mph - N/A   Light Drizzle
11:50 AM 44.6 °F 40.7 °F 44.6 °F 100% 29.71 in 1.4 mi ENE 6.9 mph - N/A   Light Drizzle
12:00 PM 45 °F - 44 °F 94% 29.73 in 1 mi ENE 6.9 mph - - Rain Light Drizzle
12:18 PM 44.6 °F 41.4 °F 44.6 °F 100% 29.71 in 1.1 mi East 5.8 mph - N/A   Light Drizzle
12:50 PM 44.6 °F 41.4 °F 44.6 °F 100% 29.71 in 1.1 mi North 5.8 mph - N/A Rain Light Rain
1:00 PM 45 °F - 44 °F 95% 29.73 in 1 mi North 5.8 mph - - Rain Light Rain
1:12 PM 44.6 °F 41.4 °F 44.6 °F 100% 29.71 in 0.9 mi East 5.8 mph - N/A Rain Light Rain
1:50 PM 44.6 °F 41.4 °F 44.6 °F 100% 29.71 in 1.1 mi East 5.8 mph - N/A Rain Light Rain
2:00 PM 45 °F - 44 °F 95% 29.73 in 1 mi East 5.8 mph - - Rain Light Rain
2:11 PM 44.6 °F 41.4 °F 44.6 °F 100% 29.71 in 0.9 mi East 5.8 mph - N/A Rain Light Rain
2:33 PM 44.6 °F 41.4 °F 44.6 °F 100% 29.71 in 0.4 mi East 5.8 mph - N/A   Light Drizzle
2:50 PM 44.6 °F 41.4 °F 44.6 °F 100% 29.71 in 0.4 mi East 5.8 mph - N/A   Light Drizzle
3:00 PM 45 °F - 44 °F 97% 29.72 in 0 mi East 5.8 mph - - Rain Light Drizzle
3:50 PM 44.6 °F - 44.6 °F 100% 29.71 in 0.6 mi East 2.3 mph - N/A   Light Drizzle
4:00 PM 45 °F - 45 °F 99% 29.71 in 1 mi East 2.3 mph - - Rain Light Drizzle
4:11 PM 46.4 °F - 44.6 °F 93% 29.71 in 1.1 mi NNW 1.2 mph - N/A   Mostly Cloudy
4:29 PM 46.4 °F - 44.6 °F 93% 29.71 in 1.6 mi NNW 1.2 mph - N/A   Mostly Cloudy
4:50 PM 46.4 °F - 44.6 °F 93% 29.71 in 1.9 mi West 2.3 mph - N/A   Mostly Cloudy
5:00 PM 46 °F - 45 °F 96% 29.72 in 2 mi West 2.3 mph - - Rain Light Drizzle
5:50 PM 46.4 °F - 44.6 °F 93% 29.71 in 1.4 mi NNW 2.3 mph - N/A   Light Drizzle
6:00 PM 46 °F - 45 °F 95% 29.72 in 1 mi NNW 2.3 mph - - Rain Light Drizzle
6:26 PM 46.4 °F 45.2 °F 44.6 °F 93% 29.71 in 1.7 mi NW 3.5 mph - N/A   Light Drizzle
6:50 PM 46.4 °F - 44.6 °F 93% 29.71 in 1.7 mi NW 1.2 mph - N/A   Light Drizzle
7:00 PM 46 °F - 45 °F 95% 29.73 in 2 mi NW 1.2 mph - - Rain Light Drizzle
7:25 PM 46.4 °F 44.3 °F 44.6 °F 93% 29.71 in - SW 4.6 mph - N/A   Mostly Cloudy
7:50 PM 46.4 °F 44.3 °F 44.6 °F 93% 29.71 in 5.6 mi WSW 4.6 mph - N/A   Overcast
8:00 PM 46 °F - 45 °F 94% 29.73 in 6 mi WSW 4.6 mph - - Rain Light Drizzle
8:50 PM 44.6 °F - 42.8 °F 93% 29.71 in 2.8 mi NW 2.3 mph - N/A Fog Fog
9:00 PM 45 °F - 44 °F 92% 29.73 in 3 mi NW 2.3 mph - - Fog Patches of Fog
9:50 PM 42.8 °F 41.1 °F 42.8 °F 100% 29.74 in 4.3 mi SSW 3.5 mph - N/A   Overcast
10:00 PM 43 °F - 42 °F 95% 29.74 in 4 mi SSW 3.5 mph - -   Mist
10:50 PM 42.8 °F - 42.8 °F 100% 29.71 in 2.5 mi West 2.3 mph - N/A   Mostly Cloudy
11:00 PM 43 °F - 42 °F 95% 29.74 in 2 mi West 2.3 mph - -   Mist
11:50 PM 44.6 °F - 42.8 °F 93% 29.74 in 2.8 mi WSW 2.3 mph - N/A   Overcast